Nantucket, MA

8:02 PM EDT on June 26, 2017 (GMT -0400)
Nantucket Memorial

Weather History for KACK - October, 2011

Change the Weather History Date:

Saturday, October 29, 2011

  Actual Average Record
Temperature  
Mean Temperature 44 °F -  
Max Temperature 48 °F 57 °F 74 °F (1971)
Min Temperature 39 °F 42 °F 30 °F (2004)
Degree Days  
Heating Degree Days 22    
Moisture  
Dew Point 41 °F    
Average Humidity 84    
Maximum Humidity 96    
Minimum Humidity 53    
Precipitation  
Precipitation 0.57 in - - ()
Sea Level Pressure  
Sea Level Pressure 29.79 in    
Wind  
Wind Speed 17 mph (NE)    
Max Wind Speed 36 mph    
Max Gust Speed 53 mph    
Visibility 5 miles    
Events Rain    
Averages and records for this station are not official NWS values.
T = Trace of Precipitation, MM = Missing Value Source: NWS Daily Summary

Daily Weather History Graph

Daily Weather History Graph

Search for Another Location

Airport or City:

Trip Planner

Search our weather history database for the weather conditions in past years. The results will help you decide how hot, cold, wet, or windy it might be!

Date:

Astronomy

Oct. 29, 2011 Rise Set
Actual Time 7:07 AM EDT 5:39 PM EDT
Civil Twilight 6:39 AM EDT 6:08 PM EDT
Nautical Twilight 6:06 AM EDT 6:40 PM EDT
Astronomical Twilight 5:34 AM EDT 7:12 PM EDT
Moon 10:28 AM EDT (10/29) 7:57 PM EDT (10/29)
Length of Visible Light 11h 29m
Length of Day
10h 32m
Waxing Crescent, 11% of the Moon is Illuminated
Oct 29
Waxing Crescent
Nov 2
First Quarter
Nov 10
Full
Nov 18
Last Quarter
Nov 25
New

Hourly Weather History & Observations

Time (EDT) Temp. Windchill Dew Point Humidity Pressure Visibility Wind Dir Wind Speed Gust Speed Precip Events Conditions
12:53 AM 44.1 °F 40.8 °F 28.0 °F 53% 30.25 in 10.0 mi North 5.8 mph - N/A   Overcast
1:53 AM 42.8 °F 39.3 °F 30.2 °F 61% 30.23 in 10.0 mi NNE 5.8 mph - N/A   Mostly Cloudy
2:53 AM 43.0 °F 40.3 °F 32.0 °F 65% 30.24 in 10.0 mi NE 4.6 mph - N/A   Overcast
3:53 AM 43.0 °F - 30.9 °F 62% 30.22 in 10.0 mi Calm Calm - N/A   Overcast
4:53 AM 39.9 °F 37.8 °F 30.9 °F 70% 30.22 in 10.0 mi NE 3.5 mph - N/A   Scattered Clouds
5:53 AM 41.0 °F 37.1 °F 33.8 °F 76% 30.21 in 10.0 mi NNE 5.8 mph - N/A   Overcast
6:53 AM 42.1 °F 39.2 °F 33.1 °F 70% 30.22 in 10.0 mi NNE 4.6 mph - N/A   Overcast
7:53 AM 45.0 °F 43.5 °F 33.1 °F 63% 30.20 in 10.0 mi ENE 3.5 mph - N/A   Overcast
8:53 AM 48.0 °F - 34.0 °F 58% 30.16 in 10.0 mi ENE 9.2 mph - N/A   Overcast
9:53 AM 48.0 °F - 33.1 °F 56% 30.16 in 10.0 mi East 12.7 mph 19.6 mph N/A   Overcast
10:53 AM 48.9 °F - 34.0 °F 56% 30.13 in 10.0 mi ENE 12.7 mph - N/A   Overcast
11:53 AM 48.0 °F - 37.0 °F 66% 30.09 in 10.0 mi East 12.7 mph - 0.00 in Rain Light Rain
12:53 PM 46.0 °F 40.2 °F 37.0 °F 71% 30.03 in 9.0 mi East 12.7 mph 20.7 mph 0.00 in Rain Light Rain
1:53 PM 45.0 °F 38.2 °F 39.9 °F 82% 29.99 in 8.0 mi ENE 15.0 mph - N/A Rain Light Rain
2:53 PM 46.0 °F 39.0 °F 41.0 °F 83% 29.93 in 6.0 mi NE 17.3 mph 29.9 mph N/A Rain Rain
3:35 PM 46.4 °F 37.9 °F 42.8 °F 87% 29.85 in 2.5 mi NE 25.3 mph 41.4 mph N/A Rain Rain
3:48 PM 46.4 °F 39.5 °F 42.8 °F 87% 29.87 in 4.0 mi ENE 17.3 mph 36.8 mph N/A Rain Light Rain
3:53 PM 46.0 °F 37.4 °F 43.0 °F 89% 29.86 in 6.0 mi ENE 25.3 mph 34.5 mph N/A Rain Light Rain
4:36 PM 46.4 °F 37.7 °F 42.8 °F 87% 29.83 in 2.5 mi ENE 26.5 mph 38.0 mph N/A Rain Rain
4:40 PM 44.6 °F 35.5 °F 42.8 °F 93% 29.83 in 3.0 mi ENE 25.3 mph 36.8 mph N/A Rain Rain
4:53 PM 45.0 °F 36.4 °F 42.1 °F 90% 29.81 in 3.0 mi ENE 23.0 mph 38.0 mph N/A Rain Rain
5:06 PM 44.6 °F 35.1 °F 42.8 °F 93% 29.79 in 4.0 mi ENE 27.6 mph 38.0 mph N/A Rain Light Rain
5:36 PM 46.4 °F 37.5 °F 42.8 °F 87% 29.76 in 7.0 mi ENE 27.6 mph 42.6 mph N/A Rain Light Rain
5:53 PM 46.0 °F 37.4 °F 42.1 °F 86% 29.78 in 10.0 mi NE 25.3 mph 44.9 mph N/A Rain Light Rain
6:53 PM 46.0 °F 36.9 °F 43.0 °F 89% 29.73 in 5.0 mi NE 28.8 mph 47.2 mph N/A Rain Rain
7:14 PM 46.4 °F 37.5 °F 42.8 °F 87% 29.71 in 4.0 mi NE 27.6 mph 43.7 mph N/A Rain Heavy Rain
7:31 PM 46.4 °F 37.9 °F 42.8 °F 87% 29.69 in 2.5 mi NE 25.3 mph 46.0 mph N/A Rain Heavy Rain
7:53 PM 46.4 °F 37.7 °F 44.6 °F 93% 29.67 in 2.5 mi NE 26.5 mph 47.2 mph N/A Rain Heavy Rain
8:00 PM 46.4 °F 37.2 °F 44.6 °F 93% 29.65 in 2.5 mi NE 29.9 mph 42.6 mph 0.01 in Rain Rain
8:14 PM 46.4 °F 36.9 °F 44.6 °F 93% 29.65 in 2.5 mi NE 32.2 mph 44.9 mph 0.05 in Rain Heavy Rain
8:27 PM 46.4 °F 36.9 °F 44.6 °F 93% 29.63 in 3.0 mi NE 32.2 mph 41.4 mph 0.07 in Rain Rain
8:43 PM 46.4 °F 37.2 °F 44.6 °F 93% 29.60 in 3.0 mi NE 29.9 mph 42.6 mph 0.10 in Rain Heavy Rain
8:47 PM 46.4 °F 37.2 °F 44.6 °F 93% 29.60 in 2.5 mi NE 29.9 mph 41.4 mph 0.11 in Rain Rain
8:53 PM 46.9 °F - 44.1 °F 90% 29.59 in 2.5 mi NE 32.2 mph 46.0 mph 0.12 in Rain Rain
8:56 PM 46.4 °F 37.5 °F 44.6 °F 93% 29.58 in 3.0 mi NE 27.6 mph 46.0 mph 0.00 in Rain Rain
9:11 PM 46.4 °F 36.4 °F 44.6 °F 93% 29.57 in 3.0 mi NE 35.7 mph 48.3 mph 0.01 in Rain Rain
9:22 PM 46.4 °F 36.4 °F 44.6 °F 93% 29.55 in 3.0 mi NE 35.7 mph 52.9 mph 0.03 in Rain Rain
9:32 PM 46.4 °F 37.2 °F 44.6 °F 93% 29.55 in 3.0 mi NE 29.9 mph 40.3 mph 0.05 in Rain Rain
9:40 PM 46.4 °F 37.7 °F 44.6 °F 93% 29.54 in 3.0 mi NE 26.5 mph 46.0 mph 0.06 in Rain Rain
9:53 PM 46.9 °F - 45.0 °F 93% 29.52 in 3.0 mi NE 34.5 mph 50.6 mph 0.09 in Rain Rain
10:02 PM 46.4 °F 37.7 °F 44.6 °F 93% 29.53 in 2.5 mi NE 26.5 mph 42.6 mph 0.02 in Rain Rain
10:13 PM 48.2 °F - 44.6 °F 87% 29.52 in 2.0 mi NE 31.1 mph 46.0 mph 0.06 in Rain Heavy Rain
10:41 PM 48.2 °F - 46.4 °F 93% 29.50 in 2.5 mi NE 33.4 mph 46.0 mph 0.14 in Rain Heavy Rain
10:53 PM 48.0 °F - 46.0 °F 93% 29.49 in 3.0 mi NE 34.5 mph 46.0 mph 0.16 in Rain Rain
11:09 PM 48.2 °F - 46.4 °F 93% 29.47 in 2.0 mi NE 33.4 mph 46.0 mph 0.07 in Rain Heavy Rain
11:26 PM 48.2 °F - 46.4 °F 93% 29.45 in 3.0 mi NE 27.6 mph 38.0 mph 0.12 in Rain Heavy Rain
11:45 PM 48.2 °F - 46.4 °F 93% 29.43 in 2.5 mi NNE 35.7 mph 47.2 mph 0.19 in Rain Heavy Rain
11:48 PM 48.2 °F - 46.4 °F 93% 29.43 in 3.0 mi NNE 31.1 mph 47.2 mph 0.19 in Rain Rain
11:53 PM 48.0 °F - 46.9 °F 96% 29.42 in 4.0 mi NNE 34.5 mph 47.2 mph 0.20 in Rain Rain